Theta_e
313 313 312 313 315 315 315 315 316 316 316 317 319 319 318 315 316 318 317 314 314 316 315 315 314 312 312 312 310 308 308 308 307 306 306 306 306 307 308 307 307 307 306 306 306 306 306 306 306 306 306 305 305 305 304 304 303 302 302 302 302 301 301 301 301 302 303 303 304 304 305 306 307 307
316 315 314 313 314 314 314 314 315 314 314 315 316 317 317 314 314 317 318 315 313 314 314 313 313 313 311 310 309 308 308 309 309 309 308 307 307 308 308 308 307 307 306 306 306 306 306 305 305 305 305 305 305 305 304 304 304 304 303 303 302 302 301 301 300 300 300 300 300 300 301 302 303 304
317 316 315 314 313 313 313 314 314 314 314 314 315 316 316 315 313 312 314 315 312 312 313 312 310 311 310 309 308 307 308 309 309 309 309 308 308 309 309 309 308 308 307 308 308 308 308 307 305 303 303 303 303 303 303 303 303 303 303 303 303 302 302 301 301 300 299 299 298 298 298 298 299 299
315 315 315 314 313 313 313 313 314 314 314 314 314 316 316 314 313 312 311 312 311 310 311 311 310 310 309 309 308 308 309 310 309 309 309 309 309 309 309 309 309 309 308 308 309 310 310 309 307 305 305 304 304 304 303 303 302 302 302 302 302 302 301 300 300 299 298 298 298 298 297 297 297 297
314 313 313 314 314 314 313 313 314 314 314 314 314 315 316 314 313 313 312 310 309 309 309 309 310 309 309 309 309 310 311 310 310 309 309 309 309 309 309 310 310 309 309 309 310 310 309 310 309 308 307 306 305 305 304 304 303 303 302 301 301 300 300 300 299 299 298 297 297 297 297 297 297 297
315 314 313 313 314 315 314 314 315 314 313 313 313 314 315 314 313 313 312 310 309 309 309 309 309 309 309 309 309 310 311 311 311 310 309 309 309 309 309 310 310 310 310 310 310 310 309 310 309 309 308 307 306 306 305 304 304 303 303 302 302 301 301 300 300 299 297 297 296 296 296 296 296 296
317 317 317 316 316 316 316 316 316 315 314 314 313 314 314 315 315 314 312 311 310 310 310 309 309 310 310 309 310 310 311 311 311 311 310 310 309 309 309 310 311 310 310 310 310 309 309 309 309 309 308 308 307 307 306 305 304 304 304 303 303 302 302 301 299 298 297 297 297 297 296 295 295 295
319 319 319 319 319 318 318 318 317 315 315 315 315 315 316 317 317 316 315 314 312 310 310 311 312 312 312 311 310 310 311 311 311 311 310 310 310 309 310 311 311 311 310 310 309 309 309 309 309 308 308 308 307 307 306 305 304 304 304 304 303 303 302 302 300 299 299 299 299 298 297 297 296 295
321 321 321 320 320 320 320 320 319 317 316 316 315 316 316 316 317 317 317 316 314 313 312 312 313 313 313 312 311 311 311 311 312 312 311 310 310 311 312 312 311 310 310 310 309 309 309 309 309 308 308 308 307 307 306 305 304 304 304 304 304 303 302 302 302 301 301 300 300 300 299 298 297 296
321 321 322 322 321 321 321 320 320 319 318 316 315 315 315 316 316 317 317 318 317 316 315 314 314 314 314 313 313 313 313 312 312 312 312 311 312 312 312 311 311 310 310 309 309 309 309 309 309 308 308 307 306 306 305 304 304 304 304 304 304 303 303 303 303 302 301 301 300 300 299 298 297 297
320 321 321 321 321 321 321 321 320 320 319 318 317 316 316 316 316 315 316 317 317 317 316 316 315 316 315 315 315 314 313 313 313 313 312 312 312 312 312 311 310 310 310 309 309 308 308 309 308 307 307 307 306 305 304 303 303 304 303 303 303 303 303 303 303 302 301 301 300 300 299 298 297 297
320 320 321 321 321 321 321 321 321 321 320 319 318 318 317 317 316 316 316 316 316 316 316 315 315 315 315 315 315 314 314 314 313 313 313 312 312 312 311 311 310 310 310 309 309 308 308 308 307 307 307 307 306 304 303 303 303 303 303 303 303 303 303 303 303 302 301 300 300 299 298 297 297 296
320 320 320 320 321 321 321 320 320 321 320 320 319 319 317 317 317 317 317 316 316 315 315 315 315 315 316 316 315 315 314 314 313 313 313 312 311 311 311 310 310 310 309 309 309 309 308 308 308 307 307 305 304 302 302 303 303 303 302 302 301 302 302 303 303 302 301 300 299 299 298 297 296 296
320 320 320 321 322 322 321 321 320 321 320 320 320 319 318 317 318 318 318 317 316 315 314 314 314 315 315 315 315 314 313 313 313 312 312 311 310 310 310 310 310 309 309 308 308 308 308 307 306 305 304 303 302 302 303 303 303 302 302 301 301 301 302 302 302 301 300 299 299 298 298 296 296 296
321 321 321 321 320 320 320 320 320 320 319 318 318 318 317 317 318 318 318 317 316 315 314 314 313 313 313 313 313 313 312 311 311 311 310 309 309 308 308 307 307 308 307 305 305 306 306 305 304 304 303 302 302 303 303 303 303 302 301 301 301 301 301 301 301 300 300 299 299 298 297 296 296 296
321 322 322 321 319 319 319 318 317 317 315 314 313 313 314 316 317 317 317 316 316 315 314 312 312 312 312 312 312 311 310 309 309 308 308 307 307 306 305 304 304 305 305 303 303 303 303 303 304 304 303 302 303 303 303 302 301 301 300 300 300 300 300 300 300 300 299 299 299 298 297 296 296 296
321 321 321 321 321 320 318 317 317 317 314 313 312 310 311 314 315 316 316 316 315 315 314 312 311 311 311 311 311 310 309 308 307 307 306 305 305 305 304 302 302 303 303 302 302 303 303 302 303 303 302 301 301 301 301 300 300 300 299 299 299 299 300 300 300 299 299 299 298 298 297 297 296 296
321 321 321 322 320 317 316 317 318 317 315 314 313 311 311 311 311 312 312 313 313 314 314 313 311 311 310 310 310 308 307 306 306 305 305 304 304 303 302 301 301 301 301 300 301 302 302 301 301 301 300 300 300 300 299 299 299 299 299 299 299 299 299 299 299 298 298 298 298 298 298 297 297 296
318 319 321 321 318 316 316 316 316 316 316 316 314 312 312 311 310 310 308 308 310 310 311 311 310 310 309 309 308 306 305 305 305 304 304 303 303 302 301 300 300 299 299 299 300 300 300 300 299 299 299 299 299 299 298 298 298 298 298 298 298 298 298 297 297 297 296 297 297 297 297 297 297 297
316 317 319 319 318 317 316 314 313 313 314 314 314 313 313 312 311 310 309 307 308 308 309 308 308 307 307 306 305 305 304 304 304 303 303 302 301 300 299 299 298 298 299 299 299 299 299 298 297 297 297 297 297 298 298 298 298 297 297 297 296 296 296 296 296 296 296 296 296 297 297 297 297 296
315 316 317 317 316 315 314 312 312 311 311 312 311 312 312 312 311 309 308 307 306 306 306 306 305 305 304 304 303 303 303 303 302 302 301 300 300 299 298 298 298 298 298 298 298 298 297 297 296 296 297 296 297 297 297 297 297 297 296 296 295 295 295 295 295 295 295 295 296 296 296 296 296 295
312 313 315 315 314 312 310 309 308 307 307 307 308 310 312 311 310 308 308 307 306 305 304 304 304 304 303 302 302 302 302 301 301 301 301 300 299 298 298 298 298 298 298 297 297 297 296 296 296 296 295 296 296 296 296 296 296 296 296 295 295 295 294 294 294 294 294 295 295 294 295 295 294 295
308 310 312 312 312 311 307 304 303 302 304 305 307 309 311 310 309 308 307 306 306 306 305 304 303 302 302 301 302 301 302 302 302 302 301 300 299 298 298 298 298 298 298 296 296 296 295 295 295 294 294 294 295 295 295 294 294 294 294 294 294 294 294 294 294 294 294 294 294 294 294 294 294 294
307 307 308 309 309 307 303 301 301 301 303 306 307 308 309 309 309 308 307 306 306 305 304 303 302 301 301 301 300 300 300 301 302 302 301 300 299 298 298 297 296 296 296 295 295 295 294 294 294 294 293 293 293 294 293 293 293 293 293 293 293 293 293 293 293 293 293 293 293 294 294 294 294 294
307 305 307 308 306 303 301 301 301 301 302 305 305 305 305 306 305 306 306 305 304 303 303 302 301 300 299 299 299 299 299 299 300 300 300 299 298 297 297 296 295 295 295 294 294 294 294 293 293 293 293 293 293 293 293 293 293 292 292 292 292 292 292 292 292 292 293 293 293 293 293 293 293 293
308 306 306 306 303 302 302 302 301 301 302 303 304 304 303 303 302 301 300 300 300 300 300 300 299 299 299 298 298 298 297 297 297 297 297 297 296 296 295 295 294 294 294 294 293 293 293 293 293 293 293 293 293 293 292 293 292 292 292 292 292 292 292 292 292 292 293 293 293 293 293 293 293 293
309 307 306 304 303 303 303 302 302 303 303 304 305 304 303 303 301 298 297 297 298 299 299 299 299 299 298 298 298 297 296 296 295 295 295 295 295 295 294 294 294 293 293 293 293 293 293 293 293 293 293 293 293 292 292 292 293 293 292 292 292 292 292 292 292 292 292 293 293 293 293 293 293 293
310 308 305 304 304 304 304 304 304 304 305 305 305 304 303 302 299 297 297 298 299 299 298 298 298 298 297 297 297 296 296 295 295 295 294 294 294 294 293 293 293 293 293 293 293 293 293 292 292 292 292 292 293 292 292 292 292 292 292 292 292 292 292 292 292 292 292 292 293 293 293 293 293 293
309 307 305 304 305 304 304 304 304 304 305 304 304 304 302 300 298 297 298 299 298 298 298 298 298 297 296 296 295 295 295 295 295 294 294 294 293 293 293 293 293 293 292 292 292 292 292 292 292 292 292 292 293 292 292 292 292 292 292 292 292 292 292 292 292 292 292 292 292 293 293 293 293 293
307 306 304 304 304 304 304 304 304 304 304 303 303 301 299 298 297 298 299 298 297 297 297 297 296 295 295 295 295 295 295 294 294 293 293 293 292 292 292 292 292 292 291 291 292 292 292 292 292 292 292 292 292 292 292 292 292 292 292 292 292 292 292 292 292 292 292 292 292 292 292 292 292 293
306 305 304 304 304 303 304 303 303 304 303 301 300 299 298 298 298 298 298 297 297 296 296 296 295 295 295 295 294 294 294 293 293 292 292 291 291 291 291 291 291 291 291 291 291 291 291 291 292 292 292 292 292 292 292 292 292 292 293 293 292 292 292 292 292 292 292 292 292 292 292 292 292 292
305 304 303 303 302 303 303 303 303 302 300 299 298 298 298 298 298 298 298 297 297 296 296 295 295 294 294 294 293 293 293 292 292 291 291 291 290 290 290 290 290 291 291 291 291 291 291 291 291 292 292 292 292 292 292 292 292 292 292 292 292 292 292 292 292 292 292 292 292 292 292 292 292 291
304 303 302 302 301 302 302 302 302 301 299 298 298 297 297 297 297 297 297 297 297 296 295 295 295 294 294 293 293 292 292 292 292 291 291 290 290 291 291 291 291 291 291 291 291 291 291 291 291 291 292 292 292 292 292 292 292 292 292 292 292 292 292 292 292 292 292 292 292 292 291 291 291 291
303 302 301 301 301 301 301 302 301 300 298 298 298 298 297 297 296 296 296 296 295 295 295 295 294 294 293 293 292 292 292 292 291 291 291 290 291 291 291 291 291 291 291 291 291 291 291 291 291 291 291 291 291 292 292 292 292 292 292 292 292 292 292 292 292 292 292 292 291 291 291 291 291 291
302 302 301 301 301 300 301 301 301 299 298 298 298 297 297 297 296 296 295 295 295 295 295 294 294 293 293 293 292 292 292 291 291 291 291 291 291 291 291 291 291 291 291 290 290 290 290 290 290 290 291 291 291 291 292 292 292 292 292 292 292 292 291 291 291 291 291 291 291 290 290 290 290 290
300 301 301 301 301 300 300 301 300 299 299 298 297 297 297 296 296 295 295 295 295 295 294 294 293 293 293 292 292 292 292 291 291 291 291 291 291 291 291 291 291 290 290 290 290 290 290 290 290 290 290 291 291 291 292 292 292 292 291 291 291 291 291 291 291 291 291 291 291 290 290 290 290 290
299 301 301 301 301 301 300 300 299 299 298 297 296 296 295 295 296 295 294 294 294 294 293 293 293 293 292 292 292 292 291 291 291 291 291 291 291 291 290 290 290 290 290 290 290 290 290 290 290 290 290 291 291 291 291 291 291 291 291 291 291 291 291 291 291 291 291 291 291 290 290 290 290 290
301 301 301 301 301 301 300 300 299 297 297 296 296 295 295 295 295 294 293 294 293 292 292 292 292 292 292 292 292 292 291 291 291 291 291 290 290 290 289 289 289 289 290 290 290 290 290 290 290 290 290 290 291 291 291 291 291 291 291 291 291 291 291 291 291 291 291 291 291 290 290 290 290 290
301 301 301 301 301 301 300 299 297 296 296 296 296 295 295 294 293 293 293 293 293 292 292 292 292 292 292 292 291 291 291 291 291 290 290 290 289 289 289 289 289 290 290 290 290 290 290 290 290 290 290 290 290 291 291 290 291 291 292 291 291 291 291 291 291 291 291 290 290 290 289 289 290 290
301 301 301 301 301 301 300 297 296 296 296 296 295 295 294 293 292 292 292 292 292 292 292 292 292 291 291 291 291 291 290 290 290 290 289 289 289 289 289 289 290 290 290 290 290 290 290 290 291 290 290 290 291 291 291 291 291 292 292 292 292 291 291 291 291 290 289 289 288 288 288 289 289 290
301 300 301 300 300 299 298 296 296 296 296 295 294 294 293 292 292 292 291 291 292 292 292 291 291 291 291 291 291 290 290 290 289 289 289 289 289 289 290 290 290 290 290 290 290 290 291 291 291 291 291 291 291 291 291 291 291 292 292 292 292 292 291 291 290 289 288 288 287 287 287 288 288 289
301 300 300 300 299 297 296 296 296 296 295 294 293 293 292 291 291 291 290 290 291 292 291 291 291 291 291 290 290 289 289 289 289 289 289 289 289 290 290 290 290 290 290 290 290 291 291 291 291 291 291 291 292 291 291 291 291 292 292 292 292 292 291 290 289 288 287 287 287 287 286 286 287 288
300 300 299 298 297 296 296 296 296 295 294 293 293 292 292 291 290 291 290 290 291 291 291 290 291 290 290 290 289 289 289 289 288 289 289 289 290 290 290 290 290 290 290 290 290 291 291 291 291 291 291 292 292 291 291 292 292 292 292 292 292 291 290 289 288 288 288 288 288 287 287 287 287 287
299 298 297 297 296 296 296 295 295 294 293 292 292 291 291 290 290 291 291 290 291 290 290 290 290 290 289 289 289 289 289 289 289 289 289 289 290 290 290 290 290 290 290 290 291 291 291 291 291 291 291 292 292 291 292 292 293 292 292 292 291 291 290 289 288 288 288 288 288 288 288 288 287 287
297 296 296 295 295 295 295 294 293 293 292 292 291 290 290 290 290 290 290 290 290 289 289 289 289 289 289 289 289 289 289 289 289 289 289 289 290 290 290 290 290 290 291 291 291 291 291 291 291 291 291 292 292 292 292 293 293 293 292 292 291 290 290 289 288 288 288 288 288 288 288 288 288 288
Wind_Speed
16 16 14 14 14 14 14 15 14 13 12 11 8 10 16 16 9 4 3 4 6 11 12 9 7 6 7 7 6 7 8 10 10 10 10 8 10 12 12 13 13 14 13 13 13 12 12 12 12 11 11 11 12 11 11 11 11 11 11 11 11 10 10 10 10 10 10 11 12 12 12 11 11 10
15 15 15 15 14 13 14 15 14 13 13 13 13 10 15 21 16 10 6 3 5 11 11 9 10 8 6 5 6 5 6 7 8 8 9 8 8 10 11 11 11 12 13 14 15 15 14 14 13 12 12 13 13 13 13 13 13 13 13 12 13 13 12 12 12 12 12 12 13 13 13 13 13 13
14 15 15 14 14 13 14 15 14 13 13 12 14 15 14 20 20 19 14 5 5 12 12 9 10 10 8 6 5 4 3 5 6 5 6 7 8 9 9 9 9 9 9 11 14 15 16 16 15 14 15 16 16 16 16 16 15 14 14 14 14 14 14 14 14 14 14 14 14 14 15 15 15 14
13 15 15 13 12 11 11 12 11 10 11 12 15 16 15 19 20 21 19 10 7 11 13 12 11 11 11 9 5 3 2 3 4 2 3 5 7 7 7 7 6 6 5 7 11 13 14 17 16 15 17 18 19 20 21 20 18 16 15 15 14 14 15 16 16 16 16 16 16 16 16 16 16 15
11 12 12 11 10 9 10 11 10 9 11 14 17 17 16 18 17 16 18 15 11 10 11 12 12 12 13 11 5 3 2 2 1 1 2 2 4 4 5 5 4 4 5 7 10 12 12 15 16 15 16 18 19 21 23 23 21 19 17 15 14 14 15 16 17 17 17 17 17 17 17 17 17 17
9 9 9 9 9 9 11 11 10 10 13 15 16 17 17 17 15 13 15 16 12 10 10 12 12 11 11 11 8 2 0 2 3 5 5 4 3 2 2 4 4 4 5 8 10 12 13 14 15 15 15 17 19 21 24 25 23 20 18 16 15 16 17 18 18 16 16 16 18 19 20 20 19 18
8 8 9 8 8 9 10 10 10 11 13 13 14 16 17 15 12 10 11 13 12 11 11 11 10 9 9 11 11 4 1 1 5 7 8 7 6 4 1 3 5 3 5 8 10 13 14 12 11 13 15 16 18 20 23 26 25 22 19 17 16 17 19 18 17 15 15 17 19 21 22 22 22 21
9 9 9 8 7 8 7 8 9 9 12 13 14 14 13 12 12 11 9 9 12 13 11 10 11 8 7 10 11 7 2 1 3 5 7 8 7 3 1 3 5 4 5 9 11 13 14 12 10 11 14 16 18 21 24 26 25 22 21 19 17 18 18 17 15 15 17 20 22 23 24 24 24 23
9 9 8 7 7 7 6 7 7 7 9 10 12 12 11 10 11 11 9 7 9 11 9 9 11 6 4 7 10 9 5 2 1 1 2 4 3 3 3 5 6 6 7 10 12 14 14 12 9 11 14 17 19 22 26 28 25 22 21 20 18 17 17 16 15 16 18 20 22 25 27 28 27 25
6 6 7 7 6 6 6 6 5 4 5 7 8 9 8 8 9 10 9 8 8 10 8 8 8 4 3 4 5 5 4 1 2 1 3 5 5 3 3 5 7 8 10 12 12 12 11 9 10 12 15 18 21 25 28 27 23 21 20 18 17 17 17 16 16 17 18 20 22 25 28 29 29 27
7 7 8 6 5 5 5 5 4 3 4 6 7 8 7 6 7 9 10 10 8 7 6 5 4 3 4 4 2 3 3 1 1 2 4 4 1 2 3 4 6 9 10 10 10 10 9 8 10 13 17 22 27 29 27 23 20 20 19 17 16 17 17 17 16 16 17 19 21 24 28 30 29 26
8 8 9 7 5 5 4 4 4 4 5 5 6 6 6 4 4 5 6 7 7 5 4 2 0 1 3 2 2 3 4 3 1 1 2 2 4 5 5 6 8 9 9 8 8 11 13 14 16 20 25 28 29 27 23 20 19 18 17 16 17 18 18 18 17 16 17 18 20 24 27 28 26 24
8 8 9 7 5 5 4 4 5 6 6 5 4 4 3 2 2 2 1 2 3 3 2 2 2 2 4 4 4 4 3 2 1 1 3 4 4 6 7 8 8 8 9 11 12 14 17 22 24 26 27 26 24 21 18 17 17 16 16 18 19 19 19 18 17 16 17 18 21 24 25 23 22 22
9 8 7 7 6 5 5 5 6 6 6 5 4 3 2 2 2 1 1 1 0 1 2 3 4 4 4 3 3 4 4 3 2 1 2 3 5 7 9 9 9 10 12 16 18 20 22 23 24 23 21 20 19 17 15 15 16 17 17 18 18 18 18 17 17 16 17 19 22 23 22 20 20 21
9 8 7 7 6 5 5 5 6 5 4 3 3 3 3 4 5 4 3 2 2 2 2 3 4 5 5 3 4 5 5 3 2 1 2 3 5 7 8 9 12 14 16 19 22 23 21 19 19 19 18 18 18 17 15 14 15 15 16 16 17 18 17 15 16 16 17 20 22 22 20 19 19 19
9 9 9 8 7 7 7 7 7 6 5 3 2 1 3 5 5 6 6 5 5 3 2 2 3 4 4 4 3 3 3 3 3 3 5 6 7 8 9 11 14 17 18 19 21 22 19 17 18 19 17 17 17 15 14 13 14 15 16 18 19 19 18 17 16 16 18 20 21 19 18 19 19 17
9 10 11 11 10 9 8 7 7 7 6 5 4 2 2 2 2 2 4 5 5 5 4 2 1 1 1 1 1 2 3 4 6 7 9 10 10 11 12 13 16 18 17 18 21 21 18 16 16 15 14 13 13 12 13 15 17 18 19 20 20 20 20 18 17 17 20 22 22 20 18 19 19 18
9 10 12 13 12 10 9 9 9 7 6 6 5 4 4 4 4 3 2 1 3 4 5 5 4 2 1 1 1 3 6 9 10 11 12 13 13 14 14 13 15 15 13 15 18 16 13 13 12 12 13 13 13 13 14 16 16 16 17 17 16 15 16 16 16 18 21 22 23 22 20 20 20 20
11 12 14 15 12 11 10 10 9 7 6 4 2 2 3 4 4 4 5 5 3 1 1 1 1 3 2 0 3 7 10 12 13 13 13 14 14 14 13 13 15 13 11 13 15 13 12 13 13 13 15 16 16 16 14 14 13 14 15 16 15 14 15 15 16 17 18 18 18 19 19 20 22 22
13 14 16 16 13 11 10 9 7 6 6 5 3 2 2 2 2 2 4 5 4 3 3 2 1 1 2 5 7 10 12 13 13 13 13 13 12 11 11 12 13 12 11 12 13 13 12 13 14 16 17 17 18 17 15 13 14 16 17 17 17 16 15 15 15 16 16 15 14 14 15 16 18 19
12 13 14 14 12 10 9 7 6 5 5 3 2 2 4 4 2 2 3 3 3 2 1 1 1 3 6 8 10 10 10 10 11 11 11 10 8 8 9 9 10 12 11 10 11 12 12 13 15 17 17 19 18 15 13 13 15 16 17 18 18 17 15 15 15 15 15 15 14 13 13 13 13 13
10 11 11 9 9 8 7 4 3 3 4 4 1 2 6 7 4 4 4 3 2 2 1 2 4 7 9 9 9 9 9 9 9 10 9 8 7 8 8 9 11 13 10 8 12 14 13 14 17 18 19 20 16 12 12 15 17 18 19 20 20 19 17 16 16 16 15 15 15 15 15 15 14 14
12 12 11 8 7 6 4 2 1 1 2 3 1 3 7 10 6 4 4 4 2 1 3 5 8 9 8 8 9 9 10 11 12 12 10 9 8 8 9 10 11 9 6 9 15 16 14 15 17 17 15 13 10 11 15 18 21 21 20 20 20 19 19 19 18 17 16 16 17 17 17 17 16 16
14 14 13 10 8 6 3 2 2 2 3 3 4 5 8 10 7 4 3 2 2 3 5 7 7 6 7 8 9 9 10 11 12 12 10 9 9 8 9 10 9 6 6 11 17 16 14 14 16 15 12 7 8 14 19 21 21 19 18 18 19 20 21 21 20 18 17 18 17 16 16 17 16 16
17 16 15 13 10 8 6 4 3 3 3 3 3 4 5 6 5 4 4 5 6 6 5 4 4 5 6 8 7 6 5 6 7 8 7 7 7 7 7 9 9 9 9 12 15 16 15 14 14 15 14 10 11 16 20 21 20 18 17 19 20 21 22 22 21 20 19 18 17 16 17 17 17 17
19 18 17 16 13 10 7 5 3 3 3 3 2 1 1 1 1 1 2 4 5 4 2 2 3 5 6 6 6 6 7 8 8 8 7 7 6 6 6 7 8 9 10 12 14 14 13 13 13 14 14 13 13 16 18 19 20 19 19 20 20 21 21 22 22 21 20 19 18 18 18 18 18 18
21 20 19 17 15 11 8 6 5 5 4 4 3 1 2 3 3 3 1 0 1 1 1 2 4 4 4 4 4 6 8 9 8 8 7 7 7 7 8 8 8 9 10 11 12 12 12 13 13 14 14 15 15 14 14 16 20 22 22 22 22 21 22 23 22 20 20 21 20 19 18 18 18 18
22 21 20 18 15 12 11 9 7 6 5 5 3 2 2 3 2 0 2 3 2 1 1 3 3 2 2 3 3 5 6 6 6 6 7 8 8 9 9 9 9 10 12 12 13 13 14 14 15 15 16 16 16 15 14 16 20 23 24 24 25 24 24 22 20 19 20 21 20 19 20 20 19 19
21 22 20 17 15 13 11 9 8 7 6 5 4 3 3 2 2 4 4 2 1 1 2 4 3 3 3 3 4 5 7 9 10 10 10 11 11 12 12 12 12 13 14 14 14 14 15 16 16 16 17 17 17 17 17 18 20 22 23 23 25 26 25 21 19 20 21 21 20 20 20 20 19 18
19 21 19 16 14 13 10 8 7 6 5 4 3 2 2 3 5 5 3 1 3 3 3 2 2 3 2 3 5 8 10 11 11 11 13 14 16 17 18 18 17 16 16 14 14 15 15 16 16 17 18 18 18 19 19 19 20 23 23 22 22 25 25 23 22 23 23 21 20 20 20 20 19 18
19 20 18 15 14 12 10 8 7 6 5 4 4 4 5 6 5 3 1 2 3 3 2 1 1 2 4 6 8 10 10 10 10 12 14 16 17 18 19 19 19 19 17 16 15 15 16 16 17 18 19 19 19 19 19 19 19 21 23 22 20 22 24 26 26 25 24 21 19 19 20 20 19 19
19 19 17 16 14 12 11 10 8 7 6 6 7 7 7 7 6 4 3 3 2 1 1 1 2 5 7 8 8 9 10 10 11 14 15 15 14 16 16 16 17 19 19 18 17 16 17 18 18 18 18 19 19 19 19 19 18 19 21 21 20 21 24 26 26 24 21 17 16 19 21 21 20 21
19 19 17 16 14 13 12 11 9 9 9 10 10 9 7 6 6 5 5 4 4 3 3 4 5 7 7 7 8 9 10 11 12 14 15 14 13 14 15 15 17 18 19 20 20 19 19 19 19 19 19 18 18 18 17 18 19 18 19 20 20 20 21 21 20 19 18 16 17 21 24 22 21 21
16 16 15 14 14 14 13 11 11 12 13 13 12 11 9 6 5 4 4 4 3 3 4 4 6 7 7 7 8 9 9 9 11 13 14 13 13 14 14 14 15 16 17 18 19 20 21 21 21 22 22 20 18 17 15 15 16 17 17 16 17 17 18 19 19 19 19 20 21 22 23 23 21 18
12 12 13 14 15 15 14 13 13 14 15 14 13 13 11 8 5 4 4 4 4 4 4 5 5 5 5 6 6 6 7 9 11 13 13 12 13 14 13 13 13 14 15 17 20 21 21 21 22 22 22 21 19 17 15 12 11 13 15 17 18 19 20 20 20 20 21 21 20 19 20 21 20 17
13 14 18 18 17 16 15 15 15 15 15 15 15 14 11 9 7 6 5 5 5 3 3 2 2 3 4 5 5 6 8 10 12 13 13 14 14 14 13 12 12 14 16 19 20 21 21 21 20 19 17 15 12 11 12 14 13 13 16 19 19 18 19 19 19 19 19 19 18 17 17 19 20 19
19 21 22 21 18 18 18 17 15 15 16 16 15 12 9 8 9 8 7 6 5 3 2 1 1 4 5 7 8 8 9 9 10 11 11 11 11 11 11 11 13 15 18 19 20 20 20 19 19 17 14 10 5 4 11 19 19 12 12 16 18 17 17 18 19 20 19 18 18 18 18 19 22 23
25 23 21 19 17 18 19 18 17 17 17 16 14 11 8 8 10 10 8 5 3 2 2 2 3 5 6 7 8 8 8 8 7 7 8 9 10 12 12 13 14 16 18 19 20 20 19 17 17 16 13 8 5 4 9 18 19 13 11 16 19 17 16 18 19 20 20 18 18 18 19 20 22 20
22 19 18 17 17 19 20 20 19 19 16 13 12 11 10 9 10 10 6 3 1 2 3 5 5 4 4 5 6 7 7 7 6 7 8 10 12 13 13 14 15 17 18 19 20 20 19 18 17 17 15 12 11 11 13 17 20 19 16 16 16 16 16 16 16 16 17 17 18 20 21 19 15 11
21 19 18 17 19 22 22 22 21 17 14 13 12 12 11 10 9 7 4 1 1 2 4 4 4 4 5 6 7 7 7 6 6 8 9 10 11 12 13 15 16 17 18 19 19 19 20 19 18 17 17 15 14 15 16 17 21 23 21 17 15 16 15 14 13 13 14 15 18 20 19 16 13 10
24 22 19 17 19 22 24 23 19 16 14 13 12 11 11 10 7 5 3 2 3 4 4 3 3 4 5 7 8 7 7 7 8 8 9 9 11 13 14 15 16 17 17 17 18 20 20 19 18 16 14 13 13 13 13 13 16 20 21 19 17 15 13 11 11 12 13 14 16 16 14 13 12 10
23 19 17 17 20 23 22 19 16 15 14 13 12 11 9 7 5 4 4 4 5 5 3 2 2 4 6 8 8 8 8 9 9 8 8 9 11 13 15 16 17 18 18 17 19 20 20 19 18 15 12 12 12 11 11 12 14 17 20 18 15 12 9 9 11 11 11 13 14 13 11 10 8 7
17 14 14 18 22 21 18 16 15 15 13 12 11 8 6 5 6 6 6 7 7 5 2 1 2 5 6 7 7 7 7 8 8 8 8 10 11 13 16 17 18 19 18 18 19 20 20 19 18 16 13 13 12 10 12 14 14 15 16 14 10 7 6 9 11 11 10 10 12 11 10 8 5 5
15 14 15 21 22 20 18 17 17 15 14 12 10 9 8 9 9 9 9 8 6 3 1 1 3 4 4 5 6 6 6 7 7 7 6 9 12 14 16 17 18 18 18 18 18 20 21 20 18 15 13 13 12 11 12 13 13 12 11 8 5 4 6 8 9 8 9 12 14 15 13 9 5 4
13 14 17 20 20 20 20 20 19 16 13 11 11 12 12 11 11 9 7 5 2 1 1 2 2 3 3 3 4 5 5 6 5 4 5 9 13 15 15 16 17 17 17 17 18 19 20 20 18 16 14 13 12 12 11 10 10 9 6 3 2 3 6 7 6 7 11 13 15 17 16 12 6 4
Wind_Direction
92 88 85 83 84 86 84 81 88 99 104 110 129 168 173 156 134 123 119 118 141 143 133 130 141 125 108 111 99 87 89 89 85 71 63 74 84 77 69 66 61 56 53 52 49 44 40 36 31 28 25 21 17 13 9 4 359 356 351 348 345 340 337 333 328 324 319 317 315 315 316 316 315 315
100 94 90 87 84 82 78 75 77 79 84 92 82 88 149 156 143 132 130 112 134 148 145 139 152 158 143 127 109 83 62 75 90 68 55 75 87 73 65 63 60 57 55 52 46 40 34 29 25 23 20 17 12 6 0 355 351 348 345 343 340 337 335 332 329 326 322 319 316 314 313 311 310 310
110 106 98 93 88 88 87 78 71 71 76 85 75 72 122 151 144 131 124 102 126 148 156 151 147 155 158 147 124 97 48 59 87 75 58 80 87 72 64 61 55 51 53 47 37 31 27 23 24 28 28 25 20 14 7 358 349 341 336 334 333 331 330 328 327 326 324 322 320 318 316 313 311 309
111 112 105 99 96 97 97 83 68 66 70 82 84 84 111 136 138 130 119 106 115 138 152 158 156 161 165 161 141 115 125 76 79 101 91 95 93 75 64 60 50 39 36 30 19 15 16 17 16 20 25 26 23 18 12 6 357 348 338 330 328 327 327 327 327 326 326 325 323 321 319 317 314 312
111 115 108 104 101 97 95 84 69 69 83 94 92 92 113 131 137 135 125 120 126 134 144 153 160 171 174 172 158 104 155 180 150 204 202 149 123 82 54 40 30 23 17 11 6 4 5 6 3 3 9 16 17 15 10 5 358 353 349 342 337 334 332 330 327 325 325 326 328 328 325 322 319 315
106 110 107 103 101 97 91 82 74 78 93 102 99 99 116 129 132 138 137 136 143 151 155 156 162 174 180 182 181 159 225 219 223 239 242 218 191 159 45 18 5 7 11 3 359 358 354 352 353 352 356 3 7 8 5 0 353 348 346 345 343 341 339 336 331 327 329 332 334 334 330 328 324 320
111 106 101 96 102 105 92 80 84 86 85 95 103 104 112 115 114 127 142 147 155 161 162 166 174 182 187 189 191 198 297 265 237 252 261 250 233 225 245 351 353 350 359 357 355 354 346 340 345 349 352 355 356 357 357 355 349 340 335 333 333 335 337 339 340 339 340 340 339 337 334 331 327 324
131 125 114 104 109 116 100 85 96 95 82 89 102 103 103 100 96 104 123 145 164 168 167 173 180 183 186 191 197 205 226 247 234 265 274 253 238 234 271 357 2 350 343 344 347 349 341 332 337 348 350 350 349 349 349 347 343 336 328 322 321 326 332 336 340 341 339 339 340 339 338 335 329 325
149 140 132 128 130 133 114 95 101 102 90 94 101 100 98 96 95 99 99 115 152 161 164 173 177 180 183 184 190 196 196 170 151 306 278 213 166 88 43 16 9 356 343 338 343 349 343 331 331 342 346 345 344 343 341 339 336 332 325 317 312 316 322 326 328 331 332 335 338 339 338 337 333 326
182 162 151 149 147 147 137 122 118 110 101 104 106 105 104 102 101 97 88 95 127 139 144 159 168 170 163 163 167 172 173 125 80 114 163 154 127 77 23 11 5 358 350 346 349 355 350 336 331 336 339 339 337 335 333 332 331 329 325 318 311 310 313 316 317 321 326 330 334 337 339 338 335 329
218 199 185 179 163 160 159 150 152 144 122 116 111 113 119 115 104 89 83 94 107 111 120 142 162 170 172 179 184 184 200 267 32 129 159 156 116 341 338 344 346 350 351 351 353 355 352 343 331 328 328 329 329 328 328 328 327 326 326 323 317 312 310 309 310 313 319 326 332 336 338 338 337 333
225 213 203 198 183 179 183 171 170 170 150 135 120 118 125 127 115 91 83 94 91 79 90 110 196 221 202 210 230 226 226 239 279 244 252 313 338 332 324 325 332 338 339 334 330 331 335 333 326 322 321 321 323 325 325 324 323 325 329 330 328 321 314 308 306 307 314 324 331 336 339 340 340 339
220 211 200 194 184 178 177 171 171 171 164 160 149 132 125 116 114 104 92 102 86 73 77 60 7 290 271 264 246 233 223 193 142 206 282 314 332 319 310 318 328 327 319 313 307 305 313 319 318 317 318 320 325 329 328 323 323 328 332 333 332 328 320 311 304 306 314 324 332 337 341 343 345 346
202 198 186 171 161 161 165 166 164 166 169 172 174 175 196 251 244 201 156 159 160 94 71 54 37 13 341 299 223 180 153 145 164 211 278 303 315 314 311 310 309 307 310 314 310 305 309 315 317 318 322 328 332 331 327 321 319 322 326 326 327 328 324 314 307 310 318 326 332 336 340 343 345 350
181 178 162 144 136 143 156 162 164 166 172 179 197 226 245 246 238 223 202 195 200 173 107 71 49 45 50 70 120 127 119 116 124 63 353 336 329 332 330 317 307 308 316 321 316 313 317 321 320 321 327 331 328 322 318 319 320 321 322 323 323 325 322 314 309 311 318 326 329 332 336 338 339 344
172 167 154 137 125 129 136 136 138 138 129 124 137 197 226 227 226 222 213 201 195 184 143 96 49 50 73 98 107 99 86 63 37 9 354 348 340 336 331 320 313 315 321 322 315 313 322 326 320 320 327 332 333 328 324 329 334 332 330 328 325 322 319 313 310 312 319 326 326 325 331 334 333 336
172 166 155 145 139 142 145 143 139 130 114 107 105 113 161 189 200 224 231 227 230 240 242 248 320 13 78 117 81 41 27 358 345 341 339 338 334 328 323 319 316 318 322 322 313 311 322 332 327 327 338 346 348 345 341 341 340 338 336 333 327 324 321 315 313 318 324 325 321 319 322 327 328 329
182 172 161 156 154 153 155 155 149 133 115 108 94 81 93 95 81 65 38 320 273 270 271 272 268 244 216 166 1 344 339 334 333 334 332 330 326 321 318 315 314 317 321 323 317 314 328 343 339 335 339 340 338 340 343 345 344 346 350 349 345 344 340 331 326 329 331 327 321 316 314 317 322 324
166 168 168 167 159 147 143 144 143 133 124 130 122 85 93 93 74 59 58 63 58 29 340 299 200 177 188 295 326 326 328 329 329 328 325 322 316 313 313 314 318 321 319 319 321 323 335 346 344 338 335 330 327 329 335 341 344 347 353 355 358 4 2 351 341 338 337 332 327 321 315 313 315 318
142 153 167 168 157 149 146 139 139 139 130 137 161 184 187 143 92 70 71 80 88 90 94 112 143 189 295 320 322 322 322 321 320 318 314 310 308 310 318 323 331 336 329 323 328 332 340 349 349 343 338 333 330 329 326 327 333 339 344 347 350 356 359 355 348 342 338 337 335 331 325 320 319 319
136 143 159 163 153 150 151 142 146 162 159 150 148 173 197 199 166 115 94 88 99 111 133 176 284 320 326 328 327 325 323 321 320 318 313 310 310 320 323 322 331 338 335 330 331 334 339 345 343 338 331 329 332 331 322 318 319 322 330 338 342 346 348 348 346 341 338 339 342 342 340 337 336 335
149 146 151 157 154 146 142 139 145 173 197 216 241 173 185 190 167 112 101 95 99 100 82 10 345 342 341 343 344 342 339 335 330 323 317 309 306 314 318 317 324 329 332 338 338 336 336 337 338 338 331 327 328 324 317 316 314 312 315 321 326 331 334 336 339 340 340 341 342 342 342 341 340 339
158 161 159 165 173 162 146 156 159 151 198 201 137 130 170 176 167 128 110 105 104 67 2 347 344 348 354 357 353 346 339 331 323 319 312 300 295 306 322 331 334 331 329 338 339 337 335 333 338 344 342 331 322 317 317 320 321 321 320 318 319 323 326 327 329 334 340 340 339 339 341 340 339 339
162 168 172 177 186 186 178 167 157 157 172 155 111 110 143 158 162 159 151 164 251 296 320 335 349 3 4 353 341 334 327 318 311 308 303 292 288 299 317 331 337 329 319 331 336 337 335 332 335 343 346 333 312 317 324 327 329 333 335 331 329 331 331 330 330 333 334 334 335 339 341 340 339 339
173 173 177 181 182 180 174 164 160 168 173 164 137 117 126 141 159 182 214 249 271 286 305 336 357 356 352 350 350 352 352 345 335 333 332 327 322 323 327 333 335 329 325 332 337 337 334 332 333 336 337 328 313 316 323 326 330 334 334 332 334 335 334 334 335 334 334 335 337 340 340 340 339 338
184 181 180 180 174 170 167 165 177 194 190 188 191 165 59 47 29 286 269 269 279 290 304 336 337 335 345 3 23 34 35 32 22 11 6 1 352 345 342 344 343 338 334 336 340 340 339 337 337 335 330 323 317 317 319 320 323 326 328 329 331 331 331 333 333 334 336 338 338 337 338 339 337 334
188 184 179 175 170 170 173 177 187 197 198 204 220 265 327 340 343 339 336 66 50 337 334 334 333 341 359 14 22 21 23 30 35 31 22 7 352 343 337 335 337 338 339 341 344 345 344 342 341 338 333 326 320 318 316 315 317 320 324 326 326 326 329 331 332 334 336 337 336 337 338 337 335 333
190 186 179 172 170 173 177 180 185 191 195 207 225 256 302 316 320 147 136 121 101 85 37 8 9 40 46 19 5 0 358 1 3 2 0 355 351 348 340 333 331 333 337 339 340 341 341 339 337 335 333 327 319 312 309 311 313 316 320 321 321 323 327 330 330 331 334 335 335 335 334 334 334 334
189 184 175 170 170 173 176 178 180 186 194 204 224 254 279 277 176 156 148 124 19 338 356 9 39 90 75 30 9 346 326 318 317 319 322 328 333 336 334 328 326 330 335 336 336 336 335 333 332 330 329 325 318 311 308 308 309 312 315 316 317 320 323 326 326 327 329 330 329 328 329 330 333 333
182 177 171 170 171 171 175 180 182 186 194 203 217 227 202 170 163 161 156 4 341 330 341 16 79 95 47 352 331 321 316 319 326 329 328 330 333 337 336 332 329 332 338 338 336 335 333 331 331 330 327 325 320 315 313 309 306 308 312 312 313 315 318 320 320 320 323 324 323 322 322 325 329 332
177 174 171 172 173 173 176 180 185 191 192 190 182 158 146 154 164 169 185 331 327 323 340 43 85 17 337 325 321 323 327 335 340 339 337 337 338 341 342 339 337 338 341 342 340 338 334 331 330 328 326 323 320 318 318 312 306 306 309 311 309 309 312 316 317 317 320 321 318 317 319 322 327 329
174 173 173 172 172 176 179 180 183 184 174 166 163 154 147 157 177 197 230 262 277 297 316 320 328 330 330 330 334 340 345 347 346 343 343 342 340 340 340 338 335 334 335 336 337 336 333 332 332 332 328 323 319 318 318 313 308 305 307 311 311 309 310 314 315 316 319 320 316 316 318 320 323 324
175 172 175 176 175 179 184 185 184 177 167 165 168 166 163 167 179 192 211 223 224 236 272 300 320 327 329 334 342 346 346 346 344 343 342 341 337 333 329 326 326 327 328 330 334 336 336 335 333 330 325 321 320 321 318 311 309 311 312 313 314 313 314 317 318 317 319 319 318 317 317 318 321 323
181 177 180 185 187 189 191 192 191 184 177 175 177 180 185 193 197 194 200 212 220 236 267 298 319 324 324 330 337 341 343 346 345 343 343 342 336 328 321 319 323 327 329 329 331 334 335 333 330 327 325 325 326 330 328 316 309 315 319 319 320 319 318 320 321 317 315 316 317 317 317 319 324 327
187 193 203 204 200 200 202 200 197 193 189 188 191 192 195 206 220 216 218 236 249 261 278 299 318 323 322 325 330 334 340 344 345 343 340 334 327 320 316 316 320 327 331 330 330 331 331 329 329 328 328 329 330 333 339 336 321 316 318 318 320 321 321 321 321 318 316 317 320 320 318 320 325 330
203 219 221 214 208 208 207 201 199 202 200 196 193 191 191 201 215 214 211 217 221 230 255 276 308 324 326 323 318 320 330 338 340 337 332 328 327 324 322 323 327 331 333 330 329 329 326 325 327 325 322 324 326 326 331 332 323 315 316 319 323 327 327 327 328 326 324 326 328 325 320 317 319 322
210 218 216 215 216 213 208 207 209 207 196 185 181 180 180 189 196 190 180 176 170 157 160 185 304 319 318 317 314 318 326 331 335 338 340 344 349 348 344 342 338 335 332 329 328 328 325 324 326 322 314 313 317 310 317 322 324 329 332 329 329 332 332 331 330 329 329 330 328 325 321 315 313 316
206 210 211 215 217 215 215 216 208 193 182 178 178 179 177 174 173 169 163 156 138 82 74 53 359 334 322 321 324 329 334 336 344 358 5 5 3 359 353 346 338 333 331 329 328 328 327 323 321 318 310 303 302 300 311 317 321 332 342 332 324 326 331 331 328 326 327 327 323 319 315 311 311 318
198 202 206 211 217 224 224 211 192 180 178 180 180 179 177 171 165 165 163 151 84 52 71 63 38 19 13 5 359 357 358 1 11 18 12 5 0 354 345 337 333 331 328 325 324 325 326 323 321 319 311 301 298 302 305 305 304 308 321 326 321 320 325 327 325 324 325 325 320 317 317 318 326 342
200 202 206 213 223 225 212 193 180 178 179 178 178 183 186 178 168 166 167 138 83 98 95 72 39 25 29 24 16 14 18 24 25 18 10 5 356 341 330 329 330 328 323 319 318 322 325 327 328 326 319 313 311 313 310 301 296 302 314 323 319 316 320 324 329 332 331 328 325 325 328 337 352 10
202 202 207 215 215 203 188 176 173 176 175 174 177 181 180 177 174 178 187 166 129 120 108 73 32 13 7 1 358 2 11 14 14 12 5 349 332 325 326 329 328 324 318 312 313 320 328 334 337 335 330 329 329 322 309 296 294 303 314 321 319 316 318 327 337 340 340 340 342 342 342 346 354 6
198 202 212 211 195 180 171 167 170 175 175 174 174 169 167 174 188 197 196 178 155 140 125 84 34 5 356 358 0 5 10 8 2 357 349 335 328 329 332 330 324 320 315 311 314 324 334 341 344 344 341 339 335 318 295 288 292 300 311 318 318 316 322 340 350 352 355 359 1 358 351 345 348 359
205 214 209 189 173 165 162 165 171 173 168 162 163 166 171 179 179 171 166 163 156 142 126 78 21 358 358 13 21 19 13 1 350 347 345 339 334 334 333 330 327 324 320 317 322 332 339 345 347 347 345 343 340 319 299 299 304 307 312 316 317 319 340 358 0 1 10 20 25 22 11 357 347 346
221 213 186 168 162 160 161 163 161 157 151 147 151 155 151 143 138 136 139 144 142 130 97 0 0 3 15 34 37 25 8 352 350 354 345 331 332 336 336 335 333 330 326 325 330 336 340 345 349 349 345 342 338 327 315 315 317 317 316 314 311 334 360 5 6 20 47 53 46 38 31 25 31 53
197 174 157 154 154 151 150 149 146 144 144 147 148 144 137 132 131 130 130 131 122 59 339 337 0 31 49 44 33 25 11 356 350 344 328 331 340 344 341 337 334 331 330 332 333 335 338 343 348 349 347 345 346 345 339 328 319 316 320 317 321 357 12 14 22 56 72 61 43 35 33 34 45 73